Location: Newark
(49.8969°N, 3.3422°E)
Time: 21:06:20
(UTC+00:00)

A-11 Canister half - Pass Details

Date: 21 January 2020
Orbit: 1517 x 1683 km, 47.2° (Epoch: 22 February)

Event Time Altitude Azimuth Distance (km) Brightness Sun altitude
Exits shadow 02:33:00 37° 94° (E) 2,217 9.9 -47.2°
Drops below altitude 10° 02:37:58 10° 86° (E) 3,694 11.5 -46.5°
Sets 02:41:01 0° 85° (E) 4,688 12.2 -46.1°
